TimeCDT,TemperatureF,Dew PointF,Humidity,Sea Level PressureIn,VisibilityMPH,Wind Direction,Wind SpeedMPH,Gust SpeedMPH,PrecipitationIn,Events,Conditions,WindDirDegrees,DateUTC
12:53 AM,62.1,54.0,75,30.14,10.0,South,12.7,-,N/A,,Clear,180,2013-03-29 05:53:00
1:53 AM,61.0,54.0,78,30.14,10.0,South,11.5,-,N/A,,Partly Cloudy,190,2013-03-29 06:53:00
2:11 AM,60.1,55.0,83,30.18,10.0,South,10.4,-,N/A,,Mostly Cloudy,190,2013-03-29 07:11:00
2:46 AM,60.1,55.0,83,30.17,10.0,South,8.1,-,N/A,,Partly Cloudy,180,2013-03-29 07:46:00
2:53 AM,59.0,55.0,87,30.14,10.0,South,9.2,-,N/A,,Partly Cloudy,170,2013-03-29 07:53:00
3:53 AM,57.0,54.0,89,30.14,10.0,South,4.6,-,N/A,,Clear,180,2013-03-29 08:53:00
4:53 AM,57.0,54.0,89,30.12,10.0,South,4.6,-,N/A,,Clear,170,2013-03-29 09:53:00
5:53 AM,57.0,54.0,89,30.12,10.0,South,4.6,-,N/A,,Clear,180,2013-03-29 10:53:00
6:53 AM,57.0,54.0,89,30.13,9.0,South,4.6,-,N/A,,Partly Cloudy,180,2013-03-29 11:53:00
7:14 AM,57.0,54.0,89,30.16,9.0,South,4.6,-,N/A,,Mostly Cloudy,170,2013-03-29 12:14:00
7:53 AM,57.0,55.0,93,30.15,6.0,South,4.6,-,N/A,,Mostly Cloudy,170,2013-03-29 12:53:00
8:53 AM,60.1,55.9,86,30.15,9.0,South,6.9,-,N/A,,Partly Cloudy,170,2013-03-29 13:53:00
9:33 AM,62.1,55.9,80,30.18,10.0,South,12.7,20.7,N/A,,Mostly Cloudy,170,2013-03-29 14:33:00
9:53 AM,64.0,55.9,75,30.15,10.0,South,11.5,23.0,N/A,,Mostly Cloudy,170,2013-03-29 14:53:00
10:13 AM,64.9,54.0,68,30.18,10.0,South,13.8,23.0,N/A,,Scattered Clouds,170,2013-03-29 15:13:00
10:53 AM,69.1,53.1,57,30.16,10.0,South,13.8,-,N/A,,Scattered Clouds,170,2013-03-29 15:53:00
11:53 AM,70.0,53.1,55,30.15,10.0,South,11.5,19.6,N/A,,Scattered Clouds,190,2013-03-29 16:53:00
12:53 PM,73.9,53.1,48,30.12,10.0,South,17.3,23.0,N/A,,Partly Cloudy,180,2013-03-29 17:53:00
1:53 PM,73.9,53.1,48,30.10,10.0,South,13.8,24.2,N/A,,Mostly Cloudy,170,2013-03-29 18:53:00
2:53 PM,75.0,53.1,46,30.09,10.0,South,13.8,18.4,N/A,,Overcast,190,2013-03-29 19:53:00
3:53 PM,75.0,53.1,46,30.07,10.0,South,11.5,20.7,N/A,,Overcast,170,2013-03-29 20:53:00
4:53 PM,75.0,53.1,46,30.05,10.0,South,11.5,20.7,N/A,,Overcast,170,2013-03-29 21:53:00
5:53 PM,75.0,52.0,44,30.05,10.0,SSE,10.4,-,N/A,,Overcast,160,2013-03-29 22:53:00
6:53 PM,73.9,53.1,48,30.05,10.0,South,10.4,-,N/A,,Overcast,170,2013-03-29 23:53:00
7:53 PM,72.0,53.1,51,30.05,10.0,SSE,4.6,-,N/A,,Partly Cloudy,150,2013-03-30 00:53:00
8:53 PM,71.1,54.0,55,30.06,10.0,SE,3.5,-,N/A,,Overcast,140,2013-03-30 01:53:00
9:53 PM,70.0,54.0,57,30.08,10.0,SSE,9.2,-,N/A,,Overcast,150,2013-03-30 02:53:00
10:53 PM,68.0,55.0,63,30.08,10.0,SSE,8.1,-,N/A,,Clear,150,2013-03-30 03:53:00
11:53 PM,66.9,55.0,66,30.09,10.0,SSE,9.2,-,N/A,,Overcast,160,2013-03-30 04:53:00